Flag for Finland Weather past 2 weeks in Oulu, Finland

Now
-2 °F

Light snow. Low clouds.


Feels Like: -2 °F
Forecast: 9 / 19 °F
Wind: 1 mph from North

Location: Oulu Airport

Current Time: Dec 28, 2014 at 12:56:21 PM

Latest Report: Dec 28, 2014 at 12:20 PM


Visibility: 1 mi

Pressure: 30.15 "Hg

Humidity: 84%

Dew point: -6 °F

Location of OuluLocation

Historic Weather in Oulu — Graph

°F

Oulu temperature yesterday

Maximum temperature yesterday: 14 °F (at 5:20 AM)
Minimum temperature yesterday: -6 °F (at 11:50 PM)
Average temperature yesterday: 8 °F

Past Weeks' High & Low Weather Summary

 TemperatureHumidityPressure
High39 °F (Dec 15, 1:50 PM)100% (Dec 13, 5:20 PM)30.15 "Hg (Dec 13, 5:20 PM)
Low-9 °F (Dec 24, 10:20 PM)75% (Dec 15, 1:50 PM)28.74 "Hg (Dec 20, 3:20 AM)
Average20 °F92%29.38 "Hg
* Reported Dec 13 11:20 AM — Dec 28 11:50 AM, Oulu, Weather by CustomWeather, © 2014

Note: Actual official high and low records may vary slightly from our data, if they occured in-between our weather recording intervals... More about our weather records

Advertising

Oulu weather history for previous 24 hours

 ConditionsComfort  
Time TempWeatherWind HumidityBarometerVisibility
11:50 AM
Dec 28
-2 °FSnow. Low clouds.2 mph84%30.15 "Hg1 mi
11:20 AM-2 °FLight snow. Low clouds.2 mph84%30.15 "Hg1 mi
10:50 AM-2 °FLight snow. Low clouds.No wind84%30.15 "Hg1 mi
10:20 AM-4 °FLight snow. Mostly cloudy.3 mph84%30.12 "Hg1 mi
9:50 AM-4 °FSnow. Low clouds.2 mph84%30.12 "Hg2 mi
9:20 AM-4 °FLight snow. Low clouds.5 mph84%30.12 "Hg3 mi
8:50 AM-4 °FLight snow. Mostly cloudy.5 mph84%30.12 "Hg4 mi
8:20 AM-2 °FLight snow. Low clouds.3 mph84%30.09 "Hg2 mi
7:50 AM-4 °FLight snow. Low clouds.3 mph84%30.09 "Hg2 mi
7:20 AM-2 °FLight snow. Mostly cloudy.3 mph84%30.09 "Hg2 mi
6:50 AM-4 °FLight snow. Mostly cloudy.3 mph84%30.09 "Hg5 mi
6:20 AM-2 °FLight snow. Mostly cloudy.2 mph84%30.09 "Hg6 mi
5:20 AM-4 °FLight snow. Mostly cloudy.No wind77%30.09 "HgN/A
4:50 AM-6 °FLight snow. Low clouds.No wind84%30.09 "Hg6 mi
4:20 AM-6 °FLight snow. Low clouds.No wind84%30.07 "HgN/A
3:50 AM-6 °FLight snow. Low clouds.2 mph84%30.07 "HgN/A
3:20 AM-6 °FLight snow. Passing clouds.2 mph84%30.07 "Hg6 mi
2:50 AM-6 °FLight snow. Mostly cloudy.3 mph84%30.07 "HgN/A
2:20 AM-6 °FLight snow. Mostly cloudy.2 mph84%30.07 "Hg4 mi
1:50 AM-6 °FLight snow. Low clouds.1 mph84%30.04 "Hg3 mi
1:20 AM-6 °FLight snow. Passing clouds.3 mph84%30.04 "HgN/A
12:50 AM-6 °FLight snow. Passing clouds.2 mph84%30.04 "HgN/A
12:20 AM-6 °FLight snow. Passing clouds.3 mph84%30.04 "HgN/A
11:50 PM
Dec 27
-6 °FLight snow. Passing clouds.5 mph84%30.04 "HgN/A
11:20 PM-4 °FPassing clouds.3 mph84%30.04 "HgN/A
10:50 PM-2 °FClear.2 mph84%30.01 "Hg10 mi
10:20 PM-2 °FLight snow. Passing clouds.5 mph84%30.01 "HgN/A
9:50 PM-2 °FLight snow. Passing clouds.5 mph84%30.01 "HgN/A
9:20 PM-2 °FLight snow. Partly cloudy.3 mph92%30.01 "HgN/A
8:50 PM0 °FLight snow. Passing clouds.3 mph84%29.98 "HgN/A
8:20 PM1 °FLight snow. Mostly cloudy.2 mph85%29.98 "HgN/A
7:50 PM1 °FLight snow. Passing clouds.2 mph92%29.98 "Hg5 mi
7:20 PM3 °FLight snow. Mostly cloudy.2 mph85%29.98 "Hg2 mi
6:20 PM5 °FLight snow. Low clouds.3 mph85%29.95 "HgN/A
5:50 PM5 °FLight snow. Low clouds.3 mph85%29.95 "HgN/A
5:20 PM7 °FLight snow. Low clouds.2 mph85%29.95 "HgN/A
4:50 PM7 °FLight snow. Low clouds.1 mph92%29.95 "HgN/A
4:20 PM7 °FLight snow. Low clouds.3 mph92%29.92 "HgN/A
3:50 PM9 °FLight snow. Low clouds.3 mph85%29.92 "HgN/A
3:20 PM10 °FLight snow. Mostly cloudy.6 mph92%29.92 "Hg6 mi
2:50 PM12 °FLight snow. Mostly cloudy.5 mph92%29.92 "Hg2 mi
2:20 PM12 °FLight snow. Mostly cloudy.6 mph92%29.89 "Hg1 mi
1:50 PM12 °FLight snow. Low clouds.3 mph92%29.89 "Hg1 mi
1:20 PM12 °FLight snow. Low clouds.2 mph92%29.89 "Hg1 mi
12:50 PM14 °FLight snow. More clouds than sun.2 mph85%29.89 "Hg1 mi
12:20 PM14 °FLight snow. Low clouds.2 mph85%29.86 "Hg2 mi
Weather by CustomWeather, © 2014

See weather overviewHow to use our weather pages